| time (UTC) | temp C | wind direction | speed KPH | gust KPH | rain 1hr cm | rain 24hr cm | rain mn cm | humidity % | barometer mb |
| 20260507040757 | 9 | 330 | 6.4 | 12.9 | 0.00 | 0.79 | 0.00 | 89 | 1013.3 |
| 20260507033757 | 8 | 306 | 6.4 | 9.7 | 0.00 | 1.02 | 0.00 | 89 | 1013.2 |
| 20260507031258 | 9 | 310 | 8.0 | 11.3 | 0.00 | 1.02 | 0.00 | 89 | 1013.0 |
| 20260507030757 | 9 | 300 | 4.8 | 8.0 | 0.00 | 1.02 | 0.00 | 89 | 1013.0 |
| 20260507024758 | 9 | 2 | 3.2 | 8.0 | 0.00 | 1.02 | 0.00 | 88 | 1012.9 |
| 20260507023757 | 9 | 340 | 1.6 | 8.0 | 0.00 | 1.35 | 0.00 | 88 | 1012.9 |
| 20260507022258 | 9 | 299 | 6.4 | 8.0 | 0.00 | 1.35 | 0.00 | 88 | 1012.9 |
| 20260507020757 | 9 | 348 | 3.2 | 4.8 | 0.00 | 1.35 | 0.00 | 88 | 1012.8 |
| 20260507015758 | 9 | 329 | 4.8 | 6.4 | 0.00 | 1.35 | 0.00 | 88 | 1012.8 |
| 20260507013757 | 9 | 338 | 1.6 | 3.2 | 0.00 | 1.73 | 0.00 | 88 | 1012.7 |
| 20260507013258 | 9 | 340 | 1.6 | 4.8 | 0.00 | 1.73 | 0.00 | 88 | 1012.7 |
| 20260507010757 | 9 | 336 | 6.4 | 8.0 | 0.00 | 1.73 | 0.00 | 88 | 1012.5 |
| 20260507004258 | 9 | 345 | 3.2 | 9.7 | 0.00 | 1.73 | 0.00 | 89 | 1012.5 |
| 20260507003757 | 9 | 306 | 6.4 | 8.0 | 0.00 | 1.93 | 0.00 | 89 | 1012.5 |
| 20260507001758 | 9 | 323 | 4.8 | 9.7 | 0.00 | 1.93 | 0.00 | 89 | 1012.3 |
| 20260507000757 | 9 | 336 | 4.8 | 8.0 | 0.00 | 1.93 | 0.00 | 89 | 1012.2 |
| 20260506235258 | 9 | 320 | 4.8 | 6.4 | 0.00 | 1.93 | 0.00 | 89 | 1012.3 |
| 20260506233757 | 9 | 316 | 6.4 | 8.0 | 0.00 | 2.08 | 0.00 | 90 | 1012.3 |
| 20260506232758 | 9 | 32 | 0.0 | 9.7 | 0.00 | 2.08 | 0.00 | 90 | 1012.2 |
| 20260506230757 | 9 | 326 | 6.4 | 9.7 | 0.00 | 2.08 | 0.00 | 90 | 1012.1 |
| 20260506230258 | 9 | 316 | 4.8 | 8.0 | 0.00 | 2.08 | 0.00 | 90 | 1011.9 |
| 20260506223757 | 9 | 324 | 6.4 | 9.7 | 0.00 | 2.29 | 2.21 | 91 | 1011.9 |
| 20260506221258 | 9 | 330 | 8.0 | 12.9 | 0.00 | 2.29 | 2.21 | 91 | 1011.7 |
| 20260506220757 | 9 | 320 | 11.3 | 11.3 | 0.00 | 2.29 | 2.21 | 91 | 1011.8 |
| 20260506214758 | 9 | 337 | 14.5 | 19.3 | 0.00 | 2.29 | 2.21 | 91 | 1011.7 |
| 20260506213757 | 9 | 336 | 9.7 | 19.3 | 0.00 | 2.44 | 2.21 | 92 | 1011.7 |
| 20260506212258 | 9 | 319 | 8.0 | 12.9 | 0.00 | 2.44 | 2.21 | 92 | 1011.6 |
| 20260506210757 | 9 | 303 | 9.7 | 12.9 | 0.00 | 2.44 | 2.21 | 92 | 1011.4 |
| 20260506205758 | 9 | 313 | 11.3 | 12.9 | 0.00 | 2.44 | 2.21 | 92 | 1011.4 |
| 20260506203758 | 9 | 350 | 6.4 | 12.9 | 0.00 | 2.46 | 2.21 | 92 | 1011.3 |
| 20260506203258 | 9 | 29 | 11.3 | 14.5 | 0.00 | 2.46 | 2.21 | 92 | 1011.2 |
| 20260506200758 | 9 | 336 | 6.4 | 14.5 | 0.00 | 2.46 | 2.21 | 92 | 1010.8 |
| 20260506194259 | 9 | 277 | 3.2 | 14.5 | 0.00 | 2.46 | 2.21 | 92 | 1010.7 |
| 20260506193758 | 9 | 316 | 8.0 | 14.5 | 0.03 | 2.46 | 2.21 | 92 | 1010.7 |
| 20260506191830 | 9 | 340 | 8.0 | 20.9 | 0.03 | 2.46 | 2.21 | 92 | 1010.5 |
| 20260506191759 | 9 | 340 | 8.0 | 20.9 | 0.03 | 2.46 | 2.21 | 92 | 1010.5 |
| 20260506190758 | 9 | 315 | 17.7 | 20.9 | 0.03 | 2.46 | 2.21 | 92 | 1010.3 |
| 20260506185259 | 10 | 327 | 6.4 | 11.3 | 0.03 | 2.46 | 2.21 | 92 | 1010.2 |
| 20260506183758 | 10 | 345 | 11.3 | 14.5 | 0.00 | 2.44 | 2.18 | 92 | 1010.1 |
| 20260506182759 | 10 | 219 | 6.4 | 16.1 | 0.03 | 2.44 | 2.18 | 92 | 1009.9 |
| 20260506180758 | 10 | 309 | 12.9 | 19.3 | 0.03 | 2.44 | 2.18 | 91 | 1009.7 |
| 20260506180259 | 10 | 343 | 11.3 | 17.7 | 0.03 | 2.44 | 2.18 | 91 | 1009.6 |
| 20260506173758 | 10 | 352 | 3.2 | 14.5 | 0.03 | 2.44 | 2.18 | 91 | 1009.3 |
| 20260506171259 | 10 | 39 | 1.6 | 12.9 | 0.00 | 2.41 | 2.16 | 90 | 1009.2 |
| 20260506170758 | 10 | 317 | 8.0 | 11.3 | 0.00 | 2.41 | 2.16 | 89 | 1009.1 |
| 20260506164759 | 10 | 358 | 1.6 | 11.3 | 0.00 | 2.41 | 2.16 | 88 | 1009.1 |
| 20260506163758 | 10 | 319 | 6.4 | 11.3 | 0.00 | 2.41 | 2.16 | 88 | 1009.1 |
| 20260506162259 | 10 | 317 | 9.7 | 14.5 | 0.00 | 2.41 | 2.16 | 87 | 1009.0 |
| 20260506160758 | 10 | 315 | 9.7 | 17.7 | 0.00 | 2.41 | 2.16 | 87 | 1008.8 |
| 20260506155759 | 10 | 358 | 3.2 | 20.9 | 0.00 | 2.41 | 2.16 | 87 | 1008.7 |
| 20260506153758 | 10 | 282 | 4.8 | 12.9 | 0.00 | 2.41 | 2.16 | 88 | 1008.9 |
| 20260506153259 | 10 | 305 | 3.2 | 12.9 | 0.00 | 2.41 | 2.16 | 88 | 1008.8 |
| 20260506150758 | 10 | 12 | 4.8 | 16.1 | 0.00 | 2.41 | 2.16 | 88 | 1008.7 |
| 20260506144259 | 11 | 354 | 8.0 | 19.3 | 0.03 | 2.41 | 2.16 | 87 | 1008.5 |
| 20260506143758 | 11 | 333 | 11.3 | 17.7 | 0.03 | 2.41 | 2.16 | 88 | 1008.5 |
| 20260506141802 | 11 | 4 | 9.7 | 19.3 | 0.03 | 2.41 | 2.16 | 88 | 1008.4 |
| 20260506140758 | 11 | 313 | 14.5 | 17.7 | 0.05 | 2.41 | 2.16 | 88 | 1008.4 |
| 20260506135259 | 11 | 351 | 6.4 | 17.7 | 0.08 | 2.41 | 2.16 | 90 | 1008.4 |
| 20260506133758 | 11 | 320 | 8.0 | 19.3 | 0.08 | 2.39 | 2.13 | 89 | 1008.4 |
| 20260506132759 | 11 | 343 | 9.7 | 20.9 | 0.08 | 2.39 | 2.13 | 89 | 1008.4 |
| 20260506130758 | 11 | 26 | 4.8 | 19.3 | 0.08 | 2.36 | 2.11 | 89 | 1008.2 |
| 20260506130259 | 11 | 338 | 6.4 | 24.1 | 0.10 | 2.36 | 2.11 | 89 | 1008.1 |
| 20260506123758 | 11 | 291 | 14.5 | 19.3 | 0.05 | 2.31 | 2.06 | 89 | 1008.1 |
| 20260506121259 | 11 | 329 | 16.1 | 27.4 | 0.05 | 2.29 | 2.03 | 90 | 1007.9 |
| 20260506120758 | 11 | 4 | 9.7 | 24.1 | 0.05 | 2.29 | 2.03 | 90 | 1007.9 |
| 20260506114759 | 10 | 52 | 6.4 | 25.7 | 0.05 | 2.26 | 2.01 | 91 | 1007.7 |
| 20260506113759 | 10 | 9 | 12.9 | 19.3 | 0.08 | 2.26 | 2.01 | 91 | 1007.7 |
| 20260506112259 | 11 | 322 | 11.3 | 17.7 | 0.08 | 2.24 | 1.98 | 91 | 1007.7 |
| 20260506110759 | 11 | 336 | 12.9 | 22.5 | 0.08 | 2.24 | 1.98 | 91 | 1007.6 |
| 20260506105759 | 11 | 26 | 12.9 | 22.5 | 0.05 | 2.21 | 1.96 | 91 | 1007.6 |
| 20260506103759 | 11 | 319 | 8.0 | 19.3 | 0.05 | 2.18 | 1.93 | 91 | 1007.5 |
| 20260506103259 | 11 | 334 | 11.3 | 22.5 | 0.05 | 2.18 | 1.93 | 91 | 1007.4 |
| 20260506100759 | 11 | 319 | 17.7 | 19.3 | 0.05 | 2.16 | 1.91 | 91 | 1007.3 |
| 20260506094300 | 11 | 338 | 6.4 | 14.5 | 0.05 | 2.13 | 1.88 | 92 | 1007.0 |
| 20260506093759 | 11 | 319 | 4.8 | 22.5 | 0.08 | 2.13 | 1.88 | 92 | 1007.0 |
| 20260506091801 | 11 | 312 | 12.9 | 16.1 | 0.08 | 2.13 | 1.88 | 92 | 1006.9 |
| 20260506090759 | 11 | 323 | 11.3 | 16.1 | 0.08 | 2.11 | 1.85 | 92 | 1006.8 |
| 20260506085300 | 11 | 358 | 4.8 | 19.3 | 0.08 | 2.08 | 1.83 | 93 | 1006.7 |
| 20260506083759 | 11 | 23 | 8.0 | 12.9 | 0.08 | 2.06 | 1.80 | 93 | 1006.5 |
| 20260506082800 | 11 | 355 | 6.4 | 11.3 | 0.08 | 2.06 | 1.80 | 93 | 1006.5 |
| 20260506080759 | 11 | 316 | 12.9 | 19.3 | 0.08 | 2.03 | 1.78 | 94 | 1006.4 |
| 20260506080300 | 11 | 305 | 17.7 | 22.5 | 0.10 | 2.03 | 1.78 | 94 | 1006.3 |
| 20260506071300 | 10 | 282 | 6.4 | 20.9 | 0.08 | 1.96 | 1.70 | 94 | 1006.4 |
| 20260506070759 | 10 | 28 | 9.7 | 19.3 | 0.08 | 1.96 | 1.70 | 94 | 1006.3 |
| 20260506062300 | 10 | 288 | 8.0 | 14.5 | 0.15 | 1.91 | 1.65 | 94 | 1006.2 |
| 20260506060759 | 10 | 8 | 8.0 | 12.9 | 0.15 | 1.88 | 1.63 | 94 | 1006.1 |
| 20260506050759 | 10 | 330 | 9.7 | 16.1 | 0.13 | 1.73 | 1.47 | 95 | 1006.0 |
| 20260506044300 | 10 | 113 | 3.2 | 11.3 | 0.20 | 1.68 | 1.42 | 95 | 1005.9 |
| 20260506043759 | 10 | 268 | 1.6 | 12.9 | 0.23 | 1.70 | 1.42 | 95 | 1006.0 |